Flag for China Weather past 2 weeks in Tsingtao, Shandong, China

Now
72 °F

Light rain. Partly sunny.


Feels Like: 67 °F
Forecast: 71 / 82 °F
Wind: 3 mph from Northeast

Location: Qingdao Airport

Current Time: Sep 5, 2015 at 4:03:58 PM

Latest Report: Sep 5, 2015 at 3:00 PM


Visibility: 4 mi

Pressure: 29.71 "Hg

Humidity: 94%

Dew point: 70 °F

Location of TsingtaoLocation

Historic Weather in Tsingtao — Graph

°F

Tsingtao temperature yesterday

Maximum temperature yesterday: 84 °F (at 10:00 AM)
Minimum temperature yesterday: 68 °F (at 2:00 AM)
Average temperature yesterday: 76 °F

Past Weeks' High & Low Weather Summary

 TemperatureHumidityPressure
High91 °F (Aug 21, 2:00 PM)100% (Aug 26, 5:00 AM)29.95 "Hg (Aug 26, 5:00 AM)
Low64 °F (Sep 2, 12:00 AM)31% (Aug 22, 3:00 PM)29.62 "Hg (Aug 21, 4:00 PM)
Average75 °F75%29.79 "Hg
* Reported Aug 21 2:00 PM — Sep 5 2:00 PM, Tsingtao, Weather by CustomWeather, © 2015

Note: Actual official high and low records may vary slightly from our data, if they occured in-between our weather recording intervals... More about our weather records

Advertising

Tsingtao weather history for previous 24 hours

 ConditionsComfort  
Time TempWeatherWind HumidityBarometerVisibility
2:00 PM
Sat, Sep 5
70 °FRain. Fog.6 mph100%29.74 "Hg2 mi
1:00 PM72 °FLight rain. Overcast.6 mph88%29.74 "HgN/A
12:00 PM73 °FLight rain. Partly sunny.8 mph78%29.74 "HgN/A
11:00 AM73 °FPartly sunny.6 mph78%29.74 "HgN/A
10:00 AM72 °FPartly sunny.8 mph83%29.77 "HgN/A
9:00 AM72 °FScattered clouds.8 mph83%29.77 "HgN/A
8:00 AM70 °FPartly sunny.8 mph83%29.77 "HgN/A
7:00 AM70 °FScattered clouds.8 mph83%29.77 "HgN/A
6:00 AM70 °FPartly sunny.10 mph83%29.74 "HgN/A
5:00 AM68 °FPassing clouds.13 mph94%29.74 "HgN/A
4:00 AM70 °FPassing clouds.13 mph88%29.77 "HgN/A
3:00 AM72 °FLight rain. Fog.10 mph94%29.77 "Hg2 mi
2:00 AM70 °FLight rain. Fog.6 mph94%29.80 "Hg3 mi
1:00 AM70 °FLight rain. Clear.8 mph94%29.80 "Hg4 mi
12:00 AM72 °FLight rain. Fog.3 mph94%29.83 "Hg3 mi
11:00 PM
Fri, Sep 4
73 °FClear.1 mph89%29.83 "Hg4 mi
10:00 PM73 °FFog.3 mph94%29.83 "Hg3 mi
9:00 PM73 °FLight rain. Fog.1 mph94%29.86 "Hg3 mi
8:00 PM75 °FLight rain. Fog.3 mph83%29.89 "Hg3 mi
7:00 PM77 °FClear.3 mph74%29.86 "Hg10 mi
6:00 PM77 °FLight rain. Scattered clouds.8 mph79%29.83 "HgN/A
5:00 PM79 °FScattered clouds.10 mph74%29.86 "HgN/A
4:00 PM81 °FScattered clouds.8 mph66%29.86 "HgN/A
Weather by CustomWeather, © 2015

See weather overviewHow to use our weather pages